Change the Weather History Date:

Monday, September 2, 2013

  Actual Average Record
Temperature  
Mean Temperature 66 °F -  
Max Temperature 72 °F 60 °F 73 °F (1999)
Min Temperature 59 °F 47 °F 44 °F (2005)
Growing Degree Days 16 (Base 50)    
Moisture  
Dew Point 56 °F    
Average Humidity 71    
Maximum Humidity 82    
Minimum Humidity 53    
Precipitation  
Precipitation 0.00 in 0.08 in - ()
Sea Level Pressure  
Sea Level Pressure 30.00 in    
Wind  
Wind Speed 20 mph ()    
Max Wind Speed 29 mph    
Max Gust Speed 41 mph    
Visibility 6.2 miles    
Events Rain    
Averages and records for this station are not official NWS values.
T = Trace of Precipitation, MM = Missing Value Source: Averaged Metar Reports

Daily Weather History Graph

Daily Weather History Graph

Search for Another Location

Airport or City:

Trip Planner

Search our weather history database for the weather conditions in past years. The results will help you decide how hot, cold, wet, or windy it might be!

Date:

Astronomy

Sep. 02, 2013 Rise Set
Actual Time 6:17 AM BST 8:09 PM BST
Civil Twilight 5:35 AM BST 8:50 PM BST
Nautical Twilight 4:43 AM BST 9:42 PM BST
Astronomical Twilight 3:40 AM BST 10:43 PM BST
Moon 2:56 AM BST (9/2) 6:31 PM BST (9/2)
Length of Visible Light 15h 14m
Length of Day
13h 51m
Waning Crescent, 9% of the Moon is Illuminated
Sep 2
Waning Crescent
Sep 5
New
Sep 12
First Quarter
Sep 19
Full
Sep 27
Last Quarter

Hourly Weather History & Observations

Time (BST) Temp. Dew Point Humidity Pressure Visibility Wind Dir Wind Speed Gust Speed Precip Events Conditions
12:50 AM 62 °F 55 °F 70% 29.95 in 47 mi WSW 20.7 mph - - Rain Rain
12:50 AM 62.6 °F 55.4 °F 77% 29.95 in 6.2 mi WSW 20.7 mph - N/A   Scattered Clouds
1:50 AM 62.6 °F 55.4 °F 77% 29.92 in 6.2 mi SW 20.7 mph - N/A   Mostly Cloudy
2:50 AM 62.6 °F 55.4 °F 77% 29.92 in 6.2 mi SW 23.0 mph - N/A   Scattered Clouds
3:50 AM 64 °F 56 °F 70% 29.91 in 47 mi WSW 26.5 mph - -   Scattered Clouds
3:50 AM 64.4 °F 57.2 °F 77% 29.89 in 6.2 mi WSW 26.5 mph - N/A   Partly Cloudy
4:50 AM 64.4 °F 57.2 °F 77% 29.89 in - WSW 27.6 mph 40.3 mph N/A   Partly Cloudy
5:50 AM 64.4 °F 55.4 °F 73% 29.92 in 6.2 mi WSW 26.5 mph - N/A   Scattered Clouds
6:50 AM 64 °F 56 °F 68% 29.94 in 40 mi SW 23.0 mph - -  
6:50 AM 64.4 °F 55.4 °F 73% 29.92 in 6.2 mi SW 23.0 mph - N/A   Scattered Clouds
7:50 AM 62.6 °F 55.4 °F 77% 29.95 in 6.2 mi SW 21.9 mph - N/A   Mostly Cloudy
8:50 AM 64.4 °F 55.4 °F 73% 29.95 in 6.2 mi SW 28.8 mph - N/A   Partly Cloudy
9:50 AM 66 °F 56 °F 62% 29.97 in 47 mi WSW 25.3 mph - -   Scattered Clouds
9:50 AM 66.2 °F 55.4 °F 68% 29.95 in 6.2 mi WSW 25.3 mph - N/A   Partly Cloudy
10:50 AM 66.2 °F 57.2 °F 73% 29.98 in 6.2 mi WSW 26.5 mph - N/A   Partly Cloudy
11:50 AM 69.8 °F 57.2 °F 64% 29.98 in - WSW 25.3 mph 39.1 mph N/A   Clear
12:50 PM 69 °F 57 °F 56% 29.99 in 47 mi WSW 26.5 mph - -   Scattered Clouds
12:50 PM 69.8 °F 57.2 °F 64% 29.98 in 6.2 mi WSW 26.5 mph - N/A   Scattered Clouds
1:50 PM 69.8 °F 57.2 °F 64% 30.01 in 6.2 mi WSW 24.2 mph 41.4 mph N/A   Mostly Cloudy
2:50 PM 71.6 °F 59.0 °F 64% 30.01 in 6.2 mi WSW 23.0 mph 34.5 mph N/A   Mostly Cloudy
3:50 PM 71 °F 57 °F 53% 30.02 in 47 mi WSW 23.0 mph - -   Scattered Clouds
3:50 PM 71.6 °F 57.2 °F 60% 30.01 in 6.2 mi WSW 23.0 mph 34.5 mph N/A   Scattered Clouds
4:50 PM 69.8 °F 57.2 °F 64% 30.04 in 6.2 mi WSW 17.3 mph - N/A   Mostly Cloudy
5:50 PM 66.2 °F 57.2 °F 73% 30.06 in 6.2 mi WSW 15.0 mph - N/A   Mostly Cloudy
6:50 PM 64 °F 57 °F 71% 30.08 in 47 mi West 18.4 mph - -   Scattered Clouds
6:50 PM 64.4 °F 57.2 °F 77% 30.06 in 6.2 mi West 18.4 mph - N/A   Mostly Cloudy
7:50 PM 64.4 °F 57.2 °F 77% 30.09 in 6.2 mi WSW 12.7 mph - N/A   Mostly Cloudy
8:50 PM 62.6 °F 55.4 °F 77% 30.12 in 6.2 mi SW 16.1 mph - N/A   Mostly Cloudy
9:50 PM 62.6 °F 55.4 °F 77% 30.12 in 6.2 mi SSW 5.8 mph - N/A   Mostly Cloudy
10:50 PM 62.6 °F 55.4 °F 77% 30.15 in 6.2 mi WSW 9.2 mph - N/A   Mostly Cloudy
11:50 PM 60.8 °F 55.4 °F 82% 30.15 in 6.2 mi WSW 8.1 mph - N/A   Mostly Cloudy